Regional Weather Roundup
Issued by NWS

Home | Current Version | Previous Version | Text Only | Print | Product List | Glossary Off
Versions: 1 2 3 4 5 6 7 8 9 10 11 12 13 14 15 16 17 18 19 20 21 22 23 24 25 26 27 28 29 30 31 32 33 34 35 36 37 38 39 40 41 42 43 44 45 46 47 48 49 50

716
ASUS43 KFSD 261602
RWRSD

WEATHER ROUNDUP FOR SOUTH DAKOTA
NATIONAL WEATHER SERVICE SIOUX FALLS SD
1100 AM CDT WED JUL 26 2017

NOTE: "FAIR" INDICATES FEW OR NO CLOUDS BELOW 12,000 FEET WITH NO
SIGNIFICANT WEATHER AND/OR OBSTRUCTIONS TO VISIBILITY.


SDZ001>005-009-010-012>017-261700-
NORTHWEST AND NORTH CENTRAL SOUTH DAKOTA

CITY           SKY/WX    TMP DP  RH WIND       PRES   REMARKS
BUFFALO          N/A     80  54  40 VRB3      30.11S
FAITH            N/A     80  55  42 MISG      30.14S
MOBRIDGE       SUNNY     81  60  48 VRB6      30.10R
$$

SDZ012>016-024>037-041>051-057-063-072>074-261700-
SOUTHWEST AND SOUTH CENTRAL SOUTH DAKOTA

CITY           SKY/WX    TMP DP  RH WIND       PRES   REMARKS
RAPID CTY ARPT CLOUDY    76  51  41 N8        30.19R
PIERRE         CLOUDY    79  60  52 NE13      30.08R
CUSTER         CLOUDY    67  45  45 NE14      30.31R
ELLSWORTH AFB  CLOUDY    74  51  44 NE6       30.19R
PHILIP         CLOUDY    79  64  60 E9        30.12R
PINE RIDGE     PTSUNNY   75  64  68 NE7       30.17R
SPEARFISH      FAIR      73  52  46 E7        30.23R
WINNER         CLOUDY    81  67  62 NE10      30.07S
$$

SDZ004>011-016>023-039-040-261700-
NORTHEAST SOUTH DAKOTA

CITY           SKY/WX    TMP DP  RH WIND       PRES   REMARKS
ABERDEEN       SUNNY     79  61  53 N10       30.09R
WATERTOWN      CLOUDY    73  59  61 E7        30.08R
BROOKINGS      CLOUDY    74  67  78 NE13      30.07R
SISSETON         N/A     78  61  55 NE13      30.07R
$$

SDZ017-020-022-023-036>040-048>070-261700-
SOUTHEAST SOUTH DAKOTA

CITY           SKY/WX    TMP DP  RH WIND       PRES   REMARKS
SIOUX FALLS    PTSUNNY   78  71  79 NE12      30.03S
HURON          CLOUDY    78  69  73 NE12      30.05R
CHAMBERLAIN    CLOUDY    79  71  76 E8        30.06R
MITCHELL       CLOUDY    79  71  76 NE9       30.05R
YANKTON        CLOUDY    79  71  76 NE8       30.02R
$$

ABBREVIATIONS USED IN REMARKS
   TC - TEMPERATURE IN CELSIUS
  WCI - WIND CHILL INDEX
   HX - HEAT INDEX
  VSB - VISIBILITY





USA.gov is the U.S. government's official web portal to all federal, state and local government web resources and services.